Theta_e
292 291 291 290 290 289 289 289 290 289 289 289 289 289 289 288 288 288 288 288 289 289
291 291 290 290 290 289 289 290 289 289 288 288 288 288 288 288 287 287 287 289 288 287
291 291 290 289 289 289 289 289 288 288 288 288 288 288 288 287 287 286 287 288 286 286
290 290 290 289 289 289 289 288 288 288 288 288 287 288 287 286 285 284 286 286 285 285
290 289 289 288 288 288 288 288 288 288 288 287 287 287 285 283 283 285 285 285 284 282
289 288 288 288 288 288 287 287 287 288 287 286 286 285 283 283 285 286 286 283 281 281
288 288 287 287 287 287 287 286 286 286 286 285 284 283 282 285 285 285 282 281 283 282
288 287 287 286 286 286 286 286 286 285 283 282 282 283 283 285 285 282 279 281 282 282
287 287 286 285 285 285 285 285 284 283 281 281 282 285 287 287 283 281 279 278 280 281
287 285 284 285 284 284 284 283 281 277 275 274 275 284 287 287 281 277 273 275 278 279
285 284 283 282 282 280 280 281 274 274 273 269 274 285 286 287 274 271 271 271 275 278
285 283 282 282 280 278 283 281 272 272 273 270 274 284 286 283 273 272 270 271 273 276
284 283 282 281 280 281 283 282 278 275 273 273 273 282 286 282 273 270 269 269 272 279
283 283 282 280 278 283 283 281 277 272 274 273 273 273 285 286 271 271 267 268 272 276
Wind_Speed
7 5 4 5 4 3 2 2 2 3 4 5 5 5 5 6 7 8 7 13 11 9
7 7 6 6 5 3 3 2 1 3 5 6 6 6 6 7 8 8 8 11 11 11
8 7 6 6 6 5 3 2 2 4 5 6 6 6 7 7 8 9 9 9 13 13
7 7 6 5 5 5 4 3 4 4 5 6 6 6 6 7 9 11 12 13 13 14
7 7 6 6 6 6 5 3 4 5 5 5 5 6 6 8 8 13 14 13 14 15
8 8 7 7 6 6 5 4 4 5 5 6 5 6 6 6 10 11 12 13 13 14
10 9 7 6 6 6 5 5 5 5 5 5 5 5 5 8 10 10 10 11 12 14
8 7 7 7 6 6 6 5 5 5 5 5 5 3 5 7 9 10 9 10 11 12
8 8 7 7 6 6 5 5 4 4 5 5 3 8 11 11 6 10 8 9 12 13
9 9 8 7 6 6 6 4 4 4 3 6 5 7 10 13 2 5 5 6 10 12
10 9 7 7 6 5 4 4 3 4 5 4 6 7 9 12 3 4 6 2 8 10
11 10 9 9 7 4 5 6 4 3 5 4 7 7 9 7 2 4 7 3 6 9
11 11 11 9 8 5 5 7 4 4 5 6 6 6 8 7 2 3 4 4 5 12
10 10 9 7 4 7 6 6 4 4 5 6 5 4 6 8 2 2 3 2 4 5
Wind_Direction
185 189 194 193 191 181 178 221 250 290 302 292 286 281 276 273 274 277 274 282 282 281
181 183 193 195 181 176 180 194 231 296 288 284 280 282 283 281 280 280 282 293 293 285
184 186 191 183 189 183 186 191 254 273 278 279 280 283 282 285 287 290 292 296 298 292
181 182 186 189 188 185 172 199 244 263 271 277 287 291 282 286 298 304 302 303 304 300
163 176 185 192 191 180 185 207 238 265 272 281 290 290 289 300 304 305 305 312 313 306
177 181 191 194 184 175 180 214 244 259 275 293 294 293 291 289 301 303 311 317 308 304
186 185 184 184 176 176 183 206 231 251 269 282 294 291 286 300 307 315 316 307 310 310
177 172 175 178 176 182 185 207 228 255 281 290 284 277 301 314 319 324 310 319 322 313
166 169 177 177 179 180 194 212 237 262 282 292 283 315 320 336 345 330 322 334 323 319
170 176 180 173 173 185 190 199 245 277 281 282 273 308 330 339 313 294 296 344 323 324
171 176 170 168 174 174 167 197 233 256 261 273 283 317 330 338 311 298 294 344 314 323
174 173 172 181 178 176 182 209 225 228 270 259 280 319 322 345 278 288 299 329 300 319
172 174 182 180 175 170 191 214 223 264 244 254 262 304 319 340 250 280 299 321 301 332
175 178 172 160 151 173 194 218 243 263 275 268 242 280 320 327 217 235 298 317 304 319